Temp
-11 -11 -11 -11 -10 -10 -10 -10 -10 -10 -9 -9 -9 -9 -9 -8 -8 -8 -7 -7 -7 -7 -7 -8 -8 -8 -8 -8 -8 -8 -8 -8 -8 -10 -12 -12 -12 -12 -12 -12 -12 -12 -12 -13 -13
-11 -11 -11 -11 -10 -10 -10 -10 -10 -9 -9 -9 -9 -9 -8 -8 -8 -8 -8 -8 -8 -8 -8 -8 -8 -8 -8 -8 -8 -8 -8 -9 -9 -10 -12 -12 -12 -12 -13 -13 -12 -12 -13 -13 -13
-11 -11 -11 -11 -10 -10 -10 -10 -9 -9 -9 -9 -9 -9 -8 -8 -8 -8 -8 -8 -8 -8 -8 -8 -8 -8 -8 -8 -8 -8 -8 -9 -9 -10 -12 -12 -13 -13 -13 -13 -14 -13 -13 -14 -13
-11 -11 -11 -11 -10 -10 -10 -9 -9 -9 -9 -9 -9 -9 -8 -8 -8 -8 -8 -8 -8 -8 -8 -8 -8 -8 -8 -8 -9 -8 -9 -9 -10 -11 -12 -13 -13 -14 -13 -13 -13 -13 -14 -14 -13
-11 -11 -11 -11 -10 -10 -10 -9 -9 -9 -9 -9 -9 -9 -8 -8 -8 -8 -8 -8 -8 -8 -8 -8 -8 -8 -8 -8 -9 -8 -9 -9 -10 -12 -13 -14 -14 -14 -13 -13 -13 -14 -14 -13 -13
-11 -11 -11 -11 -11 -10 -10 -10 -9 -9 -9 -9 -9 -9 -9 -8 -8 -8 -8 -8 -8 -8 -8 -8 -8 -8 -8 -8 -8 -9 -9 -9 -10 -12 -13 -14 -14 -14 -14 -13 -13 -13 -14 -14 -13
-11 -11 -11 -11 -11 -10 -10 -10 -10 -9 -9 -9 -9 -9 -9 -8 -8 -8 -8 -8 -8 -8 -8 -8 -8 -8 -9 -9 -8 -9 -9 -9 -11 -13 -13 -13 -13 -14 -14 -14 -13 -13 -13 -14 -14
-10 -11 -10 -11 -11 -11 -10 -10 -10 -9 -9 -9 -9 -9 -9 -9 -9 -8 -8 -8 -8 -8 -8 -8 -8 -9 -9 -9 -8 -9 -9 -10 -10 -11 -12 -13 -14 -14 -14 -14 -14 -13 -13 -13 -14
-10 -10 -11 -11 -11 -11 -11 -10 -10 -9 -9 -9 -9 -9 -9 -9 -9 -8 -9 -8 -8 -8 -8 -8 -9 -9 -9 -9 -9 -9 -9 -10 -10 -12 -13 -13 -14 -14 -14 -14 -13 -14 -13 -13 -13
-10 -10 -11 -11 -11 -11 -11 -10 -10 -10 -9 -9 -9 -9 -9 -9 -9 -8 -9 -9 -9 -9 -9 -9 -9 -9 -9 -9 -10 -9 -10 -10 -11 -12 -13 -13 -14 -14 -14 -14 -14 -14 -14 -14 -13
-11 -10 -10 -11 -11 -11 -11 -10 -10 -10 -10 -10 -10 -9 -9 -9 -9 -9 -9 -9 -9 -9 -9 -9 -9 -9 -9 -9 -9 -9 -10 -10 -11 -12 -13 -14 -14 -14 -14 -14 -14 -14 -14 -14 -14
-11 -11 -11 -11 -11 -11 -11 -11 -10 -10 -10 -10 -10 -10 -9 -9 -9 -9 -9 -9 -9 -9 -9 -9 -9 -9 -9 -9 -9 -10 -10 -10 -11 -12 -13 -14 -14 -14 -14 -14 -14 -14 -15 -15 -15
-11 -11 -11 -11 -11 -11 -11 -11 -11 -10 -10 -10 -10 -10 -10 -9 -9 -9 -9 -9 -9 -9 -9 -9 -9 -9 -9 -9 -9 -10 -10 -11 -11 -12 -13 -13 -14 -13 -14 -14 -14 -14 -15 -15 -15
-11 -11 -11 -11 -11 -11 -11 -11 -11 -11 -10 -10 -10 -10 -10 -10 -10 -10 -10 -10 -9 -9 -9 -9 -9 -9 -9 -9 -9 -10 -10 -11 -11 -12 -13 -13 -14 -14 -14 -15 -15 -15 -16 -15 -15
-11 -11 -11 -11 -11 -11 -11 -11 -11 -11 -10 -10 -10 -10 -10 -10 -10 -10 -9 -9 -10 -9 -9 -9 -9 -9 -9 -9 -10 -10 -10 -11 -11 -12 -13 -13 -14 -14 -14 -15 -15 -15 -16 -16 -17
-11 -11 -11 -12 -11 -11 -11 -11 -11 -11 -10 -10 -10 -10 -10 -10 -10 -10 -10 -10 -10 -10 -10 -9 -9 -9 -10 -10 -10 -10 -10 -11 -11 -12 -12 -13 -13 -14 -14 -14 -15 -15 -15 -16 -17
-12 -12 -11 -12 -12 -12 -11 -11 -11 -11 -10 -10 -10 -10 -10 -10 -10 -10 -10 -10 -10 -10 -10 -10 -9 -10 -10 -10 -10 -10 -10 -10 -11 -11 -12 -12 -13 -13 -14 -14 -15 -15 -15 -16 -16
-13 -13 -13 -12 -12 -12 -12 -11 -11 -10 -11 -11 -11 -11 -10 -10 -10 -10 -10 -10 -10 -10 -10 -10 -9 -10 -10 -10 -10 -10 -10 -11 -11 -11 -12 -12 -13 -13 -13 -13 -14 -14 -15 -15 -16
-13 -13 -13 -14 -13 -13 -13 -11 -10 -11 -11 -11 -11 -11 -11 -10 -10 -10 -10 -10 -10 -10 -10 -10 -10 -10 -10 -10 -10 -10 -10 -10 -10 -11 -12 -12 -12 -12 -13 -13 -14 -14 -15 -15 -15
-14 -14 -14 -16 -14 -14 -13 -11 -11 -11 -11 -11 -11 -11 -11 -11 -11 -11 -11 -10 -10 -11 -10 -10 -10 -10 -10 -10 -10 -10 -10 -10 -10 -11 -11 -11 -12 -13 -13 -13 -14 -14 -14 -15 -15
-15 -14 -14 -15 -16 -15 -12 -11 -12 -12 -12 -11 -12 -12 -11 -11 -11 -11 -11 -11 -11 -11 -11 -10 -10 -10 -11 -10 -10 -10 -10 -10 -10 -11 -11 -12 -12 -12 -13 -13 -13 -14 -14 -14 -14
-18 -16 -14 -14 -14 -13 -12 -12 -12 -13 -13 -12 -11 -12 -11 -11 -11 -11 -11 -11 -11 -11 -11 -11 -11 -11 -11 -11 -10 -11 -11 -10 -10 -11 -11 -12 -12 -12 -12 -13 -13 -13 -14 -14 -15
-18 -17 -15 -14 -14 -13 -12 -13 -14 -14 -13 -13 -12 -12 -11 -11 -11 -11 -11 -11 -11 -11 -11 -11 -11 -11 -11 -11 -11 -10 -10 -10 -11 -11 -11 -11 -12 -12 -12 -12 -13 -13 -13 -14 -14
-18 -19 -16 -15 -15 -14 -13 -13 -14 -14 -14 -14 -13 -13 -12 -11 -11 -11 -11 -11 -11 -11 -11 -11 -11 -11 -11 -11 -11 -10 -10 -10 -10 -11 -11 -11 -12 -12 -12 -12 -13 -13 -14 -14 -14
-20 -18 -18 -17 -16 -15 -15 -13 -14 -15 -14 -14 -13 -13 -13 -12 -11 -11 -12 -12 -11 -11 -11 -11 -11 -11 -11 -11 -11 -11 -11 -11 -11 -11 -11 -11 -12 -12 -12 -13 -13 -13 -14 -14 -14
-21 -19 -18 -18 -16 -15 -16 -15 -14 -15 -15 -14 -13 -13 -13 -12 -12 -13 -13 -13 -12 -12 -11 -11 -11 -11 -11 -11 -11 -11 -11 -11 -11 -11 -11 -11 -11 -12 -12 -13 -13 -13 -13 -14 -14
-22 -21 -20 -18 -18 -17 -15 -15 -15 -15 -16 -15 -15 -15 -13 -14 -14 -15 -14 -14 -13 -12 -12 -11 -11 -11 -11 -11 -12 -11 -11 -11 -11 -11 -11 -11 -12 -12 -12 -12 -13 -13 -13 -14 -14
Height
5854 5852 5850 5850 5850 5850 5850 5850 5849 5849 5848 5848 5848 5847 5844 5844 5845 5845 5844 5844 5844 5845 5845 5844 5843 5841 5839 5837 5834 5831 5828 5823 5819 5815 5814 5810 5807 5804 5802 5801 5802 5802 5802 5802 5805
5851 5850 5849 5847 5847 5847 5846 5846 5847 5846 5844 5846 5843 5843 5843 5842 5843 5842 5842 5842 5842 5842 5842 5841 5839 5837 5835 5832 5829 5826 5823 5818 5813 5808 5806 5804 5800 5798 5794 5792 5793 5793 5793 5794 5794
5848 5847 5847 5846 5845 5844 5845 5844 5843 5843 5843 5841 5840 5841 5841 5841 5840 5839 5839 5839 5840 5840 5839 5837 5836 5834 5832 5828 5825 5822 5817 5813 5806 5802 5799 5796 5793 5791 5789 5786 5784 5782 5781 5782 5783
5846 5844 5844 5844 5842 5841 5841 5840 5840 5841 5840 5839 5839 5839 5839 5839 5839 5837 5837 5838 5838 5837 5836 5835 5833 5831 5828 5824 5821 5817 5813 5808 5801 5795 5791 5788 5788 5785 5782 5780 5777 5774 5772 5773 5775
5842 5842 5840 5840 5841 5840 5839 5838 5838 5838 5837 5837 5838 5838 5837 5837 5836 5835 5835 5835 5835 5835 5833 5832 5830 5828 5824 5821 5818 5813 5808 5803 5797 5792 5787 5783 5782 5780 5777 5774 5771 5769 5768 5767 5769
5838 5839 5839 5838 5837 5837 5835 5834 5834 5834 5835 5835 5836 5835 5835 5835 5833 5833 5833 5833 5832 5832 5830 5828 5826 5824 5821 5818 5814 5809 5805 5800 5793 5787 5782 5779 5777 5776 5774 5770 5767 5765 5763 5762 5761
5835 5835 5835 5835 5834 5833 5832 5831 5832 5831 5833 5834 5833 5833 5833 5832 5831 5830 5830 5830 5830 5829 5827 5825 5823 5821 5818 5815 5810 5806 5801 5796 5791 5786 5781 5776 5772 5769 5768 5764 5762 5760 5758 5756 5753
5829 5831 5831 5832 5831 5829 5829 5829 5829 5829 5830 5831 5830 5830 5830 5829 5828 5828 5827 5827 5827 5825 5824 5822 5820 5817 5814 5811 5807 5803 5800 5794 5787 5781 5777 5774 5770 5767 5762 5759 5756 5754 5752 5750 5745
5825 5826 5826 5828 5829 5828 5826 5826 5826 5826 5827 5827 5828 5827 5827 5827 5826 5825 5825 5824 5823 5822 5821 5819 5817 5815 5811 5807 5803 5802 5796 5788 5783 5778 5774 5771 5767 5762 5757 5754 5751 5748 5745 5744 5740
5817 5820 5821 5822 5824 5825 5825 5824 5823 5823 5824 5824 5825 5826 5825 5824 5822 5822 5822 5821 5820 5819 5818 5816 5813 5812 5809 5806 5803 5798 5791 5786 5782 5777 5770 5767 5763 5757 5752 5747 5742 5739 5736 5734 5734
5811 5812 5816 5817 5818 5819 5821 5822 5821 5820 5820 5821 5822 5822 5821 5821 5820 5819 5818 5817 5817 5816 5814 5812 5810 5808 5806 5804 5801 5795 5789 5784 5779 5775 5770 5764 5758 5753 5746 5741 5737 5733 5728 5724 5723
5804 5806 5807 5812 5813 5814 5815 5816 5816 5816 5816 5816 5818 5819 5820 5818 5818 5817 5816 5815 5813 5812 5811 5809 5807 5805 5803 5800 5797 5791 5787 5782 5777 5772 5767 5762 5756 5749 5742 5735 5730 5725 5720 5715 5712
5794 5797 5800 5801 5806 5808 5809 5811 5811 5810 5811 5812 5814 5815 5816 5816 5815 5815 5814 5812 5811 5809 5807 5806 5805 5802 5800 5797 5793 5789 5785 5781 5776 5770 5764 5760 5754 5746 5739 5731 5725 5717 5711 5706 5704
5784 5788 5790 5793 5798 5800 5801 5804 5805 5804 5806 5808 5809 5811 5812 5812 5813 5812 5811 5810 5808 5806 5804 5803 5801 5799 5797 5794 5791 5787 5784 5779 5773 5769 5762 5758 5753 5745 5737 5729 5719 5712 5703 5696 5689
5775 5776 5780 5783 5787 5790 5793 5795 5797 5798 5799 5802 5804 5805 5806 5809 5809 5809 5808 5807 5805 5803 5802 5800 5798 5796 5794 5791 5788 5786 5782 5778 5773 5767 5762 5757 5751 5744 5736 5728 5718 5708 5699 5690 5682
5762 5765 5768 5772 5775 5779 5783 5786 5788 5791 5791 5795 5797 5799 5801 5803 5804 5805 5805 5804 5802 5801 5799 5797 5795 5793 5791 5789 5786 5783 5780 5776 5772 5766 5762 5756 5751 5745 5735 5727 5717 5707 5700 5691 5686
5747 5751 5754 5760 5761 5765 5770 5774 5776 5776 5786 5790 5792 5793 5795 5797 5798 5800 5801 5801 5799 5799 5797 5795 5792 5790 5788 5786 5784 5781 5778 5775 5772 5766 5761 5755 5750 5744 5736 5727 5717 5710 5704 5697 5693
5728 5734 5739 5745 5747 5750 5755 5758 5757 5771 5777 5781 5784 5786 5789 5791 5792 5794 5796 5797 5796 5795 5794 5792 5790 5788 5786 5784 5782 5778 5775 5773 5770 5766 5761 5755 5751 5745 5737 5729 5721 5714 5710 5704 5701
5706 5714 5722 5728 5729 5734 5737 5737 5744 5765 5769 5773 5775 5778 5782 5785 5787 5789 5790 5792 5792 5792 5792 5790 5787 5785 5783 5781 5780 5776 5773 5771 5768 5765 5761 5756 5752 5745 5739 5733 5726 5719 5714 5712 5708
5683 5692 5705 5703 5707 5715 5716 5722 5734 5752 5755 5761 5765 5770 5774 5777 5780 5783 5785 5787 5787 5788 5788 5787 5785 5783 5781 5779 5777 5774 5771 5768 5765 5763 5759 5755 5751 5745 5741 5736 5730 5725 5720 5718 5715
5663 5671 5684 5676 5682 5689 5696 5706 5722 5740 5743 5749 5755 5758 5764 5769 5773 5776 5779 5782 5782 5783 5783 5783 5782 5781 5778 5776 5774 5772 5769 5766 5764 5762 5759 5756 5752 5747 5744 5739 5733 5730 5726 5724 5722
5637 5648 5662 5659 5659 5671 5682 5693 5709 5726 5730 5735 5741 5745 5753 5759 5763 5768 5773 5774 5776 5777 5778 5778 5778 5777 5775 5773 5771 5769 5767 5764 5762 5761 5758 5755 5753 5748 5744 5741 5736 5733 5730 5728 5726
5612 5628 5636 5637 5637 5654 5669 5678 5694 5706 5716 5723 5728 5734 5741 5749 5754 5759 5764 5767 5769 5771 5772 5774 5774 5773 5772 5771 5769 5767 5765 5763 5760 5758 5756 5754 5751 5748 5745 5742 5738 5734 5732 5731 5729
5591 5600 5607 5612 5631 5639 5646 5660 5674 5690 5699 5707 5718 5722 5729 5736 5742 5749 5754 5758 5762 5764 5766 5767 5769 5769 5770 5768 5766 5764 5762 5760 5758 5756 5754 5752 5750 5747 5745 5742 5740 5736 5733 5731 5730
5564 5574 5586 5594 5610 5626 5630 5645 5656 5669 5684 5693 5701 5711 5716 5724 5731 5738 5744 5749 5754 5757 5759 5761 5763 5764 5764 5764 5763 5761 5759 5757 5755 5753 5752 5751 5748 5746 5744 5741 5740 5737 5734 5732 5731
5541 5553 5565 5579 5597 5602 5612 5626 5641 5657 5668 5678 5686 5700 5707 5712 5720 5730 5738 5742 5744 5748 5751 5754 5756 5757 5758 5759 5759 5758 5756 5755 5754 5751 5749 5748 5746 5744 5742 5740 5738 5737 5734 5732 5731
5522 5535 5545 5559 5573 5577 5597 5617 5627 5638 5649 5664 5675 5687 5696 5706 5714 5718 5724 5727 5732 5737 5740 5745 5748 5751 5752 5753 5753 5755 5753 5751 5751 5749 5747 5745 5744 5742 5740 5738 5737 5736 5734 5732 5731
Wind_Speed
18 15 14 13 15 15 13 15 13 13 12 12 12 12 9 10 10 10 9 8 11 13 15 16 16 16 16 17 19 21 23 28 31 27 23 25 25 27 24 22 25 29 33 32 41
17 18 14 11 14 13 13 12 13 11 11 12 11 11 10 10 10 9 9 10 12 13 14 15 14 14 15 17 19 21 24 28 30 29 28 30 33 29 28 27 28 29 36 37 39
19 15 13 14 12 13 12 11 11 11 12 12 9 8 9 9 8 9 9 10 12 13 14 13 13 13 14 16 19 21 24 27 31 28 24 25 28 30 30 27 28 33 36 36 37
19 16 15 13 15 14 12 11 11 12 13 10 9 8 7 8 9 9 10 11 12 13 13 13 12 13 15 17 19 22 24 27 29 28 26 21 19 22 24 23 24 26 28 30 31
18 18 15 14 17 13 11 11 11 12 11 9 8 7 9 9 9 9 10 11 11 12 12 11 12 13 14 17 19 21 24 28 27 25 21 20 19 17 16 17 19 22 25 28 29
18 19 18 15 14 12 10 10 11 11 10 9 9 7 8 9 8 10 10 10 12 12 12 11 13 14 15 18 20 22 23 26 28 25 20 19 18 16 15 13 15 19 23 27 30
19 19 21 16 14 12 11 11 12 11 11 12 10 7 8 10 9 9 10 12 13 13 12 12 13 15 15 17 20 22 25 26 22 20 20 20 21 18 17 18 18 18 20 25 30
20 20 20 20 16 13 11 12 12 12 12 12 11 9 9 10 10 10 11 12 13 13 12 12 13 15 16 16 19 22 23 22 25 27 25 20 16 15 16 16 17 18 20 24 32
23 22 21 21 21 15 14 14 13 12 12 10 11 10 10 10 10 10 11 13 14 14 13 12 11 13 16 17 20 22 21 25 28 28 26 19 13 15 19 22 23 24 24 23 27
22 25 24 22 21 18 17 17 15 13 12 10 11 10 10 9 9 11 11 13 14 15 13 11 10 11 12 13 16 21 22 25 26 24 25 23 19 22 24 26 22 21 24 27 28
26 26 28 26 24 21 20 20 16 15 14 12 10 9 8 8 8 9 11 12 14 14 12 11 10 12 11 13 14 18 21 23 24 23 23 22 23 25 25 20 16 19 24 27 28
30 30 29 29 28 26 23 24 21 18 15 13 12 10 9 6 6 7 7 8 10 10 10 11 10 10 11 12 14 17 20 23 24 23 22 22 24 23 22 26 23 20 21 24 24
34 32 32 31 31 29 27 26 24 22 19 17 15 14 12 8 7 6 6 9 9 9 9 8 10 9 10 12 16 17 19 21 21 23 23 22 26 26 26 26 26 28 29 27 23
38 38 36 36 34 33 33 29 28 25 23 21 20 18 15 12 10 7 6 7 8 8 8 7 8 8 7 10 14 17 19 20 22 24 23 24 25 25 25 29 33 31 27 26 27
44 42 42 41 38 38 38 35 34 30 27 25 23 21 19 17 14 11 8 7 7 7 7 7 7 7 6 9 13 16 19 21 22 22 22 23 24 25 24 26 31 27 21 21 9
50 48 46 45 44 43 41 42 39 37 33 25 25 24 22 20 18 14 11 8 6 5 6 6 5 5 5 8 10 14 17 20 21 22 21 20 24 25 25 29 31 29 20 20 15
56 54 51 49 48 48 47 47 48 46 35 31 24 24 24 22 20 17 13 11 7 5 6 5 4 5 5 7 9 11 14 19 20 21 22 22 24 26 27 29 32 27 19 20 15
62 61 57 54 53 52 53 53 57 48 40 34 31 31 25 25 22 19 16 13 9 6 5 6 5 6 7 8 9 10 13 16 20 19 21 23 23 26 26 28 30 25 20 19 18
68 66 67 57 60 57 59 63 60 47 46 40 38 34 30 29 26 23 19 16 12 4 3 4 5 7 7 9 10 10 10 13 16 18 18 21 22 24 25 27 27 27 22 21 20
74 72 68 64 65 64 66 68 62 49 51 47 42 38 35 32 29 25 23 20 16 11 5 4 6 7 8 10 11 10 11 12 14 17 18 20 22 22 22 23 25 25 23 19 18
77 59 71 71 72 72 73 71 65 52 52 52 46 43 39 35 33 30 26 23 21 17 12 6 6 8 8 10 12 12 11 12 13 14 14 16 19 20 18 20 21 22 21 19 17
76 78 60 69 80 80 77 71 63 56 54 55 52 48 43 37 35 33 28 27 23 21 18 13 8 8 9 8 10 13 12 12 12 13 12 13 15 17 18 17 17 18 16 16 14
79 80 71 57 77 74 78 74 63 59 59 58 56 53 47 41 38 35 31 29 27 24 21 18 13 9 8 8 8 11 14 14 14 14 12 11 14 14 15 16 15 15 14 14 11
77 83 89 74 61 73 76 78 68 61 60 61 59 55 52 46 43 39 35 32 29 27 23 20 18 14 9 7 9 11 14 16 14 12 11 9 9 11 12 13 14 13 13 13 12
76 85 85 87 89 57 66 72 75 66 63 63 63 60 55 50 47 43 38 34 31 29 24 22 19 18 14 8 7 11 12 14 14 13 10 9 8 9 9 10 11 12 11 10 10
78 81 88 86 83 89 60 70 73 70 64 66 66 60 56 55 50 40 35 34 34 31 28 24 22 20 19 15 8 8 11 13 13 13 12 11 10 8 7 7 9 9 9 10 10
76 80 84 87 83 93 88 62 68 70 70 65 63 59 58 52 46 38 38 41 40 36 33 29 26 22 22 19 14 10 11 13 15 16 15 13 11 10 9 8 9 10 8 8 10
Wind_Direction
290 290 273 274 271 275 268 267 255 251 251 252 250 256 267 261 257 268 275 264 256 257 261 266 269 279 286 297 306 307 308 310 311 300 276 277 281 283 279 275 277 270 263 255 247
295 278 270 276 276 268 271 266 265 261 265 263 265 263 258 258 261 264 263 260 258 260 260 264 279 291 299 309 313 312 312 313 311 304 284 274 276 275 273 276 280 272 260 248 249
295 281 271 271 270 269 266 266 273 271 269 275 269 253 255 266 267 260 263 267 262 259 263 270 277 286 299 308 313 315 318 318 314 310 299 286 279 274 270 269 268 268 261 252 246
289 278 273 256 275 269 275 278 275 271 274 268 266 262 260 271 269 267 266 260 258 262 268 275 287 297 304 319 322 323 323 320 316 314 308 299 288 276 276 274 275 270 256 248 247
282 276 273 255 265 261 266 275 269 270 263 264 259 262 273 266 267 261 256 258 260 264 271 284 299 305 313 321 324 325 325 324 320 314 306 297 293 284 277 281 275 266 254 255 256
276 270 266 259 258 266 277 285 275 266 259 254 250 260 272 270 261 259 254 261 265 268 282 299 303 314 319 321 328 328 326 326 323 318 307 303 290 282 284 284 282 268 262 264 265
269 266 268 260 259 266 280 279 261 259 253 253 249 250 259 265 257 262 255 264 266 279 292 299 305 313 316 323 328 331 329 324 326 310 321 315 317 317 298 284 276 268 261 253 258
259 262 262 263 255 261 264 263 249 252 251 252 253 243 245 252 257 258 261 260 270 285 299 299 305 308 312 325 329 332 318 325 329 327 332 322 310 307 303 296 281 270 262 255 251
259 255 253 258 260 260 258 252 244 243 248 254 254 236 235 246 253 261 268 272 278 285 296 296 304 304 312 325 331 319 327 336 336 331 330 331 337 327 312 303 295 281 269 257 255
245 257 251 248 252 256 258 248 242 238 241 246 248 238 240 243 255 268 266 267 268 278 286 286 298 299 303 319 318 322 339 335 334 334 330 336 332 326 308 306 303 293 277 260 247
246 245 250 245 245 246 249 249 241 236 241 242 234 233 230 241 250 266 273 274 267 273 285 291 300 306 308 311 322 329 343 335 338 338 333 343 337 323 318 316 308 284 272 266 255
245 247 237 244 243 241 243 246 243 239 235 227 221 222 222 222 238 256 269 279 286 275 273 287 294 294 299 314 327 340 341 338 339 335 337 343 335 332 328 329 322 305 284 269 260
242 241 237 234 244 240 239 242 241 239 234 226 219 219 218 232 249 260 285 282 276 278 272 272 283 292 297 314 335 342 343 337 339 338 343 339 335 346 340 333 323 320 313 292 254
239 241 235 234 239 242 237 237 238 236 234 229 222 221 221 229 240 254 291 305 289 282 281 270 279 284 299 322 337 339 342 340 344 345 342 338 344 348 347 341 336 338 329 311 289
242 238 238 234 234 239 238 234 236 233 233 230 225 227 230 232 236 244 269 302 312 305 294 285 284 298 319 336 341 341 340 344 342 350 343 342 348 354 354 347 346 352 347 351 325
243 239 237 236 233 235 238 238 234 233 229 226 225 228 228 232 236 244 253 280 306 300 318 315 301 314 337 343 343 339 342 344 343 348 349 349 352 3 2 360 5 6 10 31 38
244 240 237 236 235 232 234 237 236 230 228 225 224 226 224 227 232 238 243 257 292 299 314 325 333 332 348 344 343 343 342 344 345 346 352 354 357 5 9 4 15 20 26 39 56
241 240 237 236 235 234 233 233 236 230 228 228 228 228 226 226 232 232 238 242 265 292 309 329 354 356 347 340 340 340 347 345 341 350 354 355 0 10 16 19 19 35 33 39 49
240 237 236 235 235 232 232 232 234 232 231 231 232 230 228 233 233 227 231 239 243 263 310 331 340 344 351 341 336 333 337 343 343 347 357 356 0 13 16 24 27 32 42 41 41
239 238 236 234 232 231 232 232 232 227 233 231 233 233 233 232 232 233 229 232 235 234 248 321 341 336 331 328 329 325 331 344 346 346 357 358 2 4 12 13 25 33 37 46 53
237 236 236 233 229 228 230 232 231 225 230 231 231 233 233 235 235 234 232 232 232 230 233 273 305 329 342 342 335 326 330 341 344 346 354 353 360 360 5 18 24 30 39 42 47
234 235 231 228 236 229 224 230 229 225 229 229 229 229 232 232 235 236 232 232 232 235 233 247 275 317 338 342 346 346 336 335 340 341 349 351 355 359 358 9 22 31 39 44 47
231 234 225 227 229 236 230 227 228 220 228 230 227 229 228 231 233 234 232 230 232 233 234 238 251 281 321 337 339 342 348 340 331 338 342 347 345 358 355 3 7 26 38 37 39
226 227 229 228 230 232 229 228 225 223 220 229 229 224 227 225 230 228 229 229 231 232 234 234 241 253 276 309 329 327 329 337 330 329 338 340 330 341 350 353 0 8 22 26 27
228 225 225 231 230 232 231 230 224 222 220 225 229 227 225 224 226 228 223 224 229 231 232 234 238 243 260 273 302 320 324 331 330 326 328 330 324 322 336 339 356 356 9 14 16
229 227 225 226 228 230 230 227 229 222 221 221 227 228 228 228 223 225 226 226 226 226 230 233 237 243 250 263 282 314 320 316 324 327 321 322 315 314 319 330 336 343 353 354 356
226 226 229 227 223 231 226 226 224 224 218 221 225 228 229 232 229 218 219 221 221 220 223 229 235 239 245 251 264 292 318 317 313 318 325 315 310 317 321 324 320 317 328 337 338